Simultaneous Nadir Overpasses (SNOs) Predictions

Prediction of SNOs between GOES-16 and NOAA-20 Satellite Orbit:

Table of predicted SNOs for the next 14.0 days since TLE Epoch: 4/8/2023
Index Date Time (GOES-16) GOES-16 Lat,Lon NOAA-20 Lat,Lon Distance(km) Time Diff (sec)
1 04/08/2023 18:21:04 0.05, -75.20 0.25, -74.27 106.44 80
2 04/10/2023 06:45:33 -0.05, -75.21 0.92, -79.54 493.91 80
3 04/11/2023 06:24:10 -0.05, -75.21 -0.12, -75.02 22.46 80
4 04/13/2023 18:30:03 0.04, -75.21 -0.10, -75.78 65.58 80
5 04/14/2023 18:08:39 0.04, -75.21 0.94, -71.26 451.19 80
6 04/16/2023 06:33:07 -0.03, -75.23 0.28, -76.52 147.97 80
7 04/17/2023 06:11:44 -0.03, -75.23 -0.76, -72.00 369.26 80
8 04/18/2023 18:36:21 0.03, -75.25 -0.41, -77.30 233.43 80
9 04/19/2023 18:14:57 0.03, -75.26 0.57, -72.77 284.35 80
10 04/21/2023 06:39:26 -0.03, -75.29 0.58, -78.04 313.39 80
